Hourly Weather Argvani

Today, 13 July, Monday

Time Temperature Precipitation Wind Pressure Humidity
00:00 +15°C° 0 mm 2 mps 627 mmHg 67%
01:00 +15°C° 0 mm 2 mps 627 mmHg 67%
02:00 +15°C° 0 mm 2 mps 627 mmHg 68%
03:00 +14°C° 0 mm 2 mps 627 mmHg 68%
04:00 +15°C° 0 mm 2 mps 627 mmHg 68%
05:00 +16°C° 0 mm 1 mps 627 mmHg 68%
06:00 +18°C° 0 mm 1 mps 627 mmHg 68%
07:00 +19°C° 0 mm 1 mps 627 mmHg 61%
08:00 +21°C° 0 mm 1 mps 628 mmHg 55%
09:00 +23°C° 0 mm 1 mps 629 mmHg 49%
10:00 +24°C° 0.1 mm 2 mps 629 mmHg 47%
11:00 +25°C° 0.1 mm 2 mps 629 mmHg 45%
12:00 +25°C° 0.1 mm 2 mps 629 mmHg 43%
13:00 +25°C° 0.2 mm 2 mps 629 mmHg 44%
14:00 +25°C° 0.2 mm 2 mps 629 mmHg 45%
15:00 +25°C° 0.2 mm 1 mps 629 mmHg 46%
16:00 +24°C° 0.4 mm 1 mps 628 mmHg 53%
17:00 +22°C° 0.4 mm 1 mps 628 mmHg 61%
18:00 +21°C° 0.4 mm 1 mps 627 mmHg 69%
19:00 +19°C° 0.8 mm 1 mps 627 mmHg 73%
20:00 +18°C° 0.8 mm 1 mps 627 mmHg 78%
21:00 +16°C° 0.8 mm 1 mps 627 mmHg 83%
22:00 +16°C° 0.4 mm 1 mps 627 mmHg 83%
23:00 +15°C° 0.4 mm 1 mps 627 mmHg 83%

Tomorrow, 14 July, Tuesday

Time Temperature Precipitation Wind Pressure Humidity
00:00 +15°C° 0.4 mm 1 mps 627 mmHg 83%
01:00 +15°C° 0.2 mm 1 mps 627 mmHg 83%
02:00 +14°C° 0.2 mm 1 mps 627 mmHg 83%
03:00 +14°C° 0.2 mm 1 mps 627 mmHg 83%
04:00 +15°C° 0.3 mm 1 mps 627 mmHg 83%
05:00 +15°C° 0.3 mm 1 mps 628 mmHg 82%
06:00 +16°C° 0.3 mm 1 mps 628 mmHg 82%
07:00 +18°C° 0.4 mm 1 mps 629 mmHg 80%
08:00 +18°C° 0.4 mm 1 mps 629 mmHg 77%
09:00 +19°C° 0.4 mm 1 mps 630 mmHg 75%
10:00 +19°C° 0.9 mm 1 mps 630 mmHg 77%
11:00 +18°C° 0.9 mm 1 mps 630 mmHg 80%
12:00 +18°C° 0.9 mm 1 mps 630 mmHg 82%
13:00 +19°C° 0.9 mm 1 mps 630 mmHg 79%
14:00 +19°C° 0.9 mm 1 mps 630 mmHg 76%
15:00 +20°C° 0.9 mm 1 mps 630 mmHg 74%
16:00 +20°C° 0.5 mm 1 mps 630 mmHg 74%
17:00 +20°C° 0.5 mm 1 mps 631 mmHg 74%
18:00 +20°C° 0.5 mm 1 mps 631 mmHg 75%
19:00 +18°C° 0.4 mm 1 mps 631 mmHg 78%
20:00 +16°C° 0.4 mm 1 mps 630 mmHg 82%
21:00 +15°C° 0.4 mm 1 mps 630 mmHg 85%
22:00 +15°C° 0.2 mm 1 mps 630 mmHg 85%
23:00 +15°C° 0.2 mm 1 mps 630 mmHg 84%

Day after tomorrow, 15 July, Wednesday

Time Temperature Precipitation Wind Pressure Humidity
00:00 +14°C° 0.2 mm 1 mps 630 mmHg 83%
01:00 +14°C° 0 mm 1 mps 630 mmHg 83%
02:00 +14°C° 0 mm 1 mps 630 mmHg 83%
03:00 +14°C° 0 mm 1 mps 631 mmHg 83%
04:00 +14°C° 0 mm 1 mps 631 mmHg 83%
05:00 +15°C° 0 mm 1 mps 632 mmHg 82%
06:00 +16°C° 0 mm 1 mps 632 mmHg 82%
07:00 +17°C° 0.1 mm 2 mps 633 mmHg 78%
08:00 +18°C° 0.1 mm 2 mps 633 mmHg 74%
09:00 +19°C° 0.1 mm 2 mps 634 mmHg 70%
10:00 +19°C° 0.5 mm 2 mps 634 mmHg 69%
11:00 +20°C° 0.5 mm 2 mps 634 mmHg 68%
12:00 +21°C° 0.5 mm 3 mps 634 mmHg 67%
13:00 +20°C° 0.8 mm 2 mps 633 mmHg 69%
14:00 +20°C° 0.8 mm 2 mps 633 mmHg 70%
15:00 +20°C° 0.8 mm 2 mps 633 mmHg 72%
16:00 +19°C° 1.1 mm 2 mps 633 mmHg 74%
17:00 +20°C° 1.1 mm 1 mps 633 mmHg 77%
18:00 +19°C° 1.1 mm 1 mps 633 mmHg 79%
19:00 +18°C° 0.7 mm 1 mps 632 mmHg 82%
20:00 +16°C° 0.7 mm 1 mps 632 mmHg 85%
21:00 +15°C° 0.7 mm 1 mps 632 mmHg 88%
22:00 +15°C° 0.1 mm 1 mps 632 mmHg 88%
23:00 +14°C° 0.1 mm 0 mps 632 mmHg 87%

16 July, Thursday

Time Temperature Precipitation Wind Pressure Humidity
00:00 +14°C° 0.1 mm 0 mps 632 mmHg 87%
01:00 +14°C° 0.1 mm 0 mps 632 mmHg 88%
02:00 +14°C° 0.1 mm 0 mps 631 mmHg 88%
03:00 +13°C° 0.1 mm 0 mps 631 mmHg 88%
04:00 +14°C° 0 mm 0 mps 631 mmHg 87%
05:00 +14°C° 0 mm 0 mps 631 mmHg 86%
06:00 +14°C° 0 mm 0 mps 631 mmHg 84%
07:00 +16°C° 0 mm 1 mps 632 mmHg 80%
08:00 +18°C° 0 mm 1 mps 632 mmHg 76%
09:00 +18°C° 0 mm 2 mps 632 mmHg 71%
10:00 +19°C° 0.3 mm 2 mps 632 mmHg 70%
11:00 +19°C° 0.3 mm 2 mps 632 mmHg 69%
12:00 +19°C° 0.3 mm 2 mps 632 mmHg 67%
13:00 +19°C° 0.4 mm 2 mps 632 mmHg 68%
14:00 +19°C° 0.4 mm 2 mps 632 mmHg 68%
15:00 +19°C° 0.4 mm 2 mps 632 mmHg 69%
16:00 +19°C° 0.2 mm 2 mps 631 mmHg 72%
17:00 +18°C° 0.2 mm 2 mps 631 mmHg 75%
18:00 +19°C° 0.2 mm 1 mps 631 mmHg 78%
19:00 +16°C° 0.1 mm 1 mps 630 mmHg 82%
20:00 +15°C° 0.1 mm 1 mps 630 mmHg 87%
21:00 +13°C° 0.1 mm 0 mps 630 mmHg 91%
22:00 +14°C° 0.1 mm 1 mps 630 mmHg 91%
23:00 +14°C° 0.1 mm 1 mps 629 mmHg 90%

17 July, Friday

Time Temperature Precipitation Wind Pressure Humidity
00:00 +14°C° 0.1 mm 1 mps 629 mmHg 90%
01:00 +14°C° 0 mm 1 mps 629 mmHg 90%
02:00 +13°C° 0 mm 1 mps 629 mmHg 89%
03:00 +13°C° 0 mm 1 mps 629 mmHg 89%
04:00 +14°C° 0 mm 1 mps 629 mmHg 88%
05:00 +15°C° 0 mm 1 mps 629 mmHg 87%
06:00 +15°C° 0 mm 1 mps 629 mmHg 86%
07:00 +18°C° 0 mm 1 mps 630 mmHg 81%
08:00 +18°C° 0 mm 2 mps 630 mmHg 75%
09:00 +19°C° 0 mm 2 mps 631 mmHg 70%
10:00 +20°C° 0.4 mm 2 mps 631 mmHg 70%
11:00 +20°C° 0.4 mm 2 mps 631 mmHg 69%
12:00 +20°C° 0.4 mm 2 mps 631 mmHg 68%
13:00 +20°C° 0.7 mm 2 mps 631 mmHg 68%
14:00 +20°C° 0.7 mm 2 mps 631 mmHg 67%
15:00 +20°C° 0.7 mm 2 mps 631 mmHg 66%
16:00 +19°C° 0.7 mm 2 mps 630 mmHg 72%
17:00 +18°C° 0.7 mm 2 mps 630 mmHg 77%
18:00 +18°C° 0.7 mm 1 mps 630 mmHg 83%
19:00 +18°C° 1.6 mm 1 mps 630 mmHg 86%
20:00 +16°C° 1.6 mm 1 mps 630 mmHg 89%
21:00 +15°C° 1.6 mm 1 mps 630 mmHg 92%
22:00 +15°C° 0.5 mm 1 mps 629 mmHg 90%
23:00 +15°C° 0.5 mm 1 mps 629 mmHg 88%

18 July, Saturday

Time Temperature Precipitation Wind Pressure Humidity
00:00 +14°C° 0.5 mm 1 mps 629 mmHg 85%
01:00 +14°C° 0 mm 1 mps 629 mmHg 85%
02:00 +14°C° 0 mm 1 mps 629 mmHg 84%
03:00 +13°C° 0 mm 0 mps 629 mmHg 83%
04:00 +13°C° 0 mm 0 mps 630 mmHg 82%
05:00 +14°C° 0 mm 0 mps 630 mmHg 80%
06:00 +14°C° 0 mm 0 mps 630 mmHg 79%
07:00 +18°C° 0 mm 1 mps 631 mmHg 74%
08:00 +19°C° 0 mm 1 mps 631 mmHg 70%
09:00 +19°C° 0 mm 2 mps 632 mmHg 65%
10:00 +20°C° 0.1 mm 2 mps 632 mmHg 64%
11:00 +21°C° 0.1 mm 2 mps 632 mmHg 62%
12:00 +23°C° 0.1 mm 2 mps 632 mmHg 60%
13:00 +22°C° 0.3 mm 3 mps 632 mmHg 60%
14:00 +22°C° 0.3 mm 3 mps 632 mmHg 60%
15:00 +22°C° 0.3 mm 3 mps 632 mmHg 60%
16:00 +23°C° 0.1 mm 2 mps 632 mmHg 63%
17:00 +21°C° 0.1 mm 2 mps 632 mmHg 66%
18:00 +20°C° 0.1 mm 2 mps 632 mmHg 69%
19:00 +20°C° 0.1 mm 1 mps 632 mmHg 74%
20:00 +18°C° 0.1 mm 1 mps 631 mmHg 80%
21:00 +16°C° 0.1 mm 1 mps 631 mmHg 85%
22:00 +15°C° 0 mm 1 mps 631 mmHg 84%
23:00 +15°C° 0 mm 1 mps 631 mmHg 84%
Show more